Hourly Data Report for October 29, 2013

All times are specified in Local Standard Time (LST). Add 1 hour to adjust for Daylight Saving Time where and when it is observed.

OTTAWA INTL A
ONTARIO

45°19'00.000" N
75°40'00.000" W
114.90 m
6106001
71628
YOW

Download Data

Hourly Data (October 2013)
Hourly Data Report for October 29, 2013
Temp Definition
°C
Dew Point Temp Definition
°C
Rel Hum Definition
%
Wind Dir Definition
10's deg

Wind Spd Definition
km/h
Visibility Definition
km
Stn Press Definition
kPa
Hmdx Definition


Wind Chill Definition


Weather Definition


TIME
00:00 Legend Double Dagger -3.0 -6.3 78 34 11 24.1 101.62   -7 LegendNANA
01:00 Legend Double Dagger -5.1 -7.9 81 25 3 24.1 101.65   -6 Clear
02:00 Legend Double Dagger -4.5 -5.5 93 25 8 24.1 101.69   -8 LegendNANA
03:00 Legend Double Dagger -6.0 -6.8 94 23 6 24.1 101.70   -9 LegendNANA
04:00 Legend Double Dagger -4.9 -5.9 93 24 6 24.1 101.72   -8 Mainly Clear
05:00 Legend Double Dagger -5.5 -6.5 93 24 5 24.1 101.75   -8 LegendNANA
06:00 Legend Double Dagger -5.3 -6.3 93 24 3 24.1 101.79   -7 LegendNANA
07:00 Legend Double Dagger -5.4 -6.4 93 26 8 24.1 101.82   -9 Mainly Clear
08:00 Legend Double Dagger -2.7 -4.1 90 29 8 24.1 101.86   -6 LegendNANA
09:00 Legend Double Dagger -0.9 -3.9 80 28 6 24.1 101.88   -3 LegendNANA
10:00 Legend Double Dagger -0.3 -5.7 67 33 12 24.1 101.91   -4 Mostly Cloudy
11:00 Legend Double Dagger 0.6 -6.3 60 30 13 24.1 101.84     LegendNANA
12:00 Legend Double Dagger 1.9 -6.5 54 24 10 24.1 101.78     LegendNANA
13:00 Legend Double Dagger 2.8 -6.1 52 31 10 24.1 101.68     Clear
14:00 Legend Double Dagger 3.3 -7.3 46 27 13 24.1 101.59     LegendNANA
15:00 Legend Double Dagger 3.8 -6.8 46 24 13 24.1 101.58     LegendNANA
16:00 Legend Double Dagger 2.5 -6.9 50 24 6 24.1 101.54     Clear
17:00 Legend Double Dagger 1.2 -7.1 54 24 3 24.1 101.55     LegendNANA
18:00 Legend Double Dagger -0.3 -7.4 59 16 6 24.1 101.49   -2 LegendNANA
19:00 Legend Double Dagger -1.3 -7.5 63 13 7 24.1 101.43   -4 Cloudy
20:00 Legend Double Dagger -1.5 -7.3 65 14 8 24.1 101.41   -5 LegendNANA
21:00 Legend Double Dagger -0.8 -6.8 64 17 8 24.1 101.39   -4 LegendNANA
22:00 Legend Double Dagger -0.6 -5.8 68 17 8 24.1 101.32   -3 Cloudy
23:00 Legend Double Dagger -0.3 -4.9 71 19 8 24.1 101.24   -3 LegendNANA

Notes on Data Quality.

Legend

  • E = Estimated
  • M = Missing
  • NA = Not Available
  • ‡ = Partner data that is not subject to review by the National Climate Archives
Date modified: